User: anonymous   Login
Location: Caltech
(34.1382°N, 118.1253°W)
Time: 20:42:14
(UTC-07:00)
Language:

Cosmos 1943 Rocket - Orbit

View from above orbital plane
View from above orbital plane
View from above satellite
View from above satellite

Ground track
Ground track

The orbit data is extracted from the following two-line orbital elements,

1 19120U 88039B   17289.81925027 -.00000137  00000-0 -42244-4 0  9995
2 19120  71.0148  67.9182 0022131 355.7370   4.3562 14.19177117523647
Epoch (UTC): 16 October 2017 19:39:43
Eccentricity: 0.0022131
inclination: 71.0148°
perigee height: 812 km
apogee height: 844 km
right ascension of ascending node: 67.9182°
argument of perigee: 355.7370°
revolutions per day: 14.19177117
mean anomaly at epoch: 4.3562°
orbit number at epoch: 52364

The dashed part of the orbit path shows where the satellite is in the earth's shadow,  

DLR